User: anonymous   Login
Location: Ciula Mare
(45.6000°N, 22.8167°E)
Time: 05:21:12
(UTC+00:00)
Language:

SKYMED 2 - Orbit

View from above orbital plane
View from above orbital plane
View from above satellite
View from above satellite

Ground track
Ground track

The orbit data is extracted from the following two-line orbital elements,

1 32376U 07059A   23159.55383588  .00000611  00000-0  83324-4 0  9999
2 32376  97.8883 343.1553 0001407  90.9702 269.1672 14.82145510838451
Epoch (UTC): 08 June 2023 13:17:31
Eccentricity: 0.0001407
inclination: 97.8883°
perigee height: 621 km
apogee height: 623 km
right ascension of ascending node: 343.1553°
argument of perigee: 90.9702°
revolutions per day: 14.82145510
mean anomaly at epoch: 269.1672°
orbit number at epoch: 83845

The dashed part of the orbit path shows where the satellite is in the earth's shadow,  

DLR